This is the latest recevied weather packets stored in our database for station/object WL7CLI. If no packets are shown the sender has not sent any weather packets the latest 10 day(s).
| Time | Temp. | Humidity | Pressure | Rain* | Wind** | Luminosity | Snow |
|---|---|---|---|---|---|---|---|
| 1777972571 | 8.89° C | 62% | 1008.3 hPa | 0.25 mm | - | - | - |
| 1777971504 | 8.89° C | 71% | 1009.2 hPa | 0.25 mm | - | - | - |
| 1777971499 | 8.89° C | 71% | 1008.5 hPa | 0.25 mm | - | - | - |
| 1777971372 | 8.89° C | 69% | 1008.5 hPa | 0.25 mm | - | - | - |
| 1777970298 | 9.44° C | 68% | 1007 hPa | 0.25 mm | - | - | - |
| 1777970171 | 8.89° C | 68% | 1006.9 hPa | 0.25 mm | - | - | - |
| 1777969704 | 8.89° C | 69% | 1008.7 hPa | 0.25 mm | - | - | - |
| 1777969098 | 9.44° C | 68% | 1008.1 hPa | 1.02 mm | - | - | - |
| 1777968971 | 9.44° C | 72% | 1008.2 hPa | 1.02 mm | - | - | - |
| 1777967904 | 9.44° C | 63% | 1007.3 hPa | 0.76 mm | - | - | - |
| 1777967899 | 9.44° C | 63% | 1006.7 hPa | 0.76 mm | - | - | - |
| 1777967772 | 9.44° C | 64% | 1006.5 hPa | 0.76 mm | - | - | - |
| 1777966698 | 8.89° C | 73% | 1007.4 hPa | 0.76 mm | - | - | - |
| 1777966571 | 8.89° C | 74% | 1007.4 hPa | 0.76 mm | - | - | - |
| 1777966104 | 9.44° C | 74% | 1008.4 hPa | 0.76 mm | - | - | - |
| 1777965499 | 9.44° C | 70% | 1006.6 hPa | 0.76 mm | - | - | - |
| 1777965373 | 9.44° C | 69% | 1006.7 hPa | 0.51 mm | - | - | - |
| 1777964304 | 10.56° C | 64% | 1008.8 hPa | 0 mm | - | - | - |
| 1777964299 | 10.56° C | 64% | 1008 hPa | 0 mm | - | - | - |
| 1777964172 | 10.56° C | 63% | 1007.9 hPa | 0 mm | - | - | - |
| 1777963098 | 10.56° C | 59% | 1008 hPa | 0 mm | - | - | - |
| 1777962972 | 11.11° C | 58% | 1008 hPa | 0 mm | - | - | - |
| 1777962504 | 11.11° C | 56% | 1009.1 hPa | 0 mm | - | - | - |
| 1777961899 | 11.67° C | 52% | 1007.8 hPa | 0 mm | - | - | - |
| 1777961772 | 11.67° C | 52% | 1007.8 hPa | 0 mm | - | - | - |
* Rain latest hour (hover to see other rain measurements)
** Current wind speed in m/s (hover to see current wind gust speed)